This is the latest recevied weather packets stored in our database for station/object LY3FF-10. If no packets are shown the sender has not sent any weather packets the latest 10 day(s).
| Time | Temp. | Humidity | Pressure | Rain* | Wind** | Luminosity | Snow |
|---|---|---|---|---|---|---|---|
| 1778038889 | 10° C | 69% | 989.4 hPa | - | - | - | - |
| 1778038048 | 11.67° C | 69% | 989.3 hPa | - | - | - | - |
| 1778036358 | 11.67° C | 68% | 989.3 hPa | - | - | - | - |
| 1778035553 | 10° C | 68% | 989.2 hPa | - | - | - | - |
| 1778034762 | 10° C | 68% | 989.2 hPa | - | - | - | - |
| 1778033268 | 10° C | 66% | 988.9 hPa | - | - | - | - |
| 1778032509 | 10° C | 66% | 989 hPa | - | - | - | - |
| 1778031650 | 10° C | 66% | 988.8 hPa | - | - | - | - |
| 1778030769 | 12.22° C | 65% | 988.9 hPa | - | - | - | - |
| 1778029912 | 12.22° C | 65% | 989.1 hPa | - | - | - | - |
| 1778029178 | 12.78° C | 65% | 989.2 hPa | - | - | - | - |
| 1778022806 | 12.78° C | 61% | 988.9 hPa | - | - | - | - |
| 1778022082 | 12.78° C | 61% | 988.8 hPa | - | - | - | - |
| 1778021198 | 12.78° C | 60% | 988.5 hPa | - | - | - | - |
| 1778019597 | 14.44° C | 59% | 988.5 hPa | - | - | - | - |
| 1778018785 | 13.33° C | 60% | 988.8 hPa | - | - | - | - |
| 1778018036 | 13.33° C | 60% | 988.5 hPa | - | - | - | - |
| 1778015628 | 14.44° C | 63% | 988.8 hPa | - | - | - | - |
| 1778014869 | 13.89° C | 64% | 988.8 hPa | - | - | - | - |
| 1778014023 | 13.89° C | 65% | 988.5 hPa | - | - | - | - |
| 1778011578 | 14.44° C | 59% | 987.2 hPa | - | - | - | - |
| 1778009107 | 16.67° C | 49% | 987.8 hPa | - | - | - | - |
| 1778008373 | 16.67° C | 49% | 987.9 hPa | - | - | - | - |
| 1778007516 | 17.78° C | 49% | 988.1 hPa | - | - | - | - |
| 1778005170 | 17.22° C | 49% | 988.1 hPa | - | - | - | - |
* Rain since midnight (hover to see other rain measurements)
** Current wind speed in m/s (hover to see current wind gust speed)